Location: Unspecified
(37.7813°N, 0.0000°E)
Time: 00:28:01
(UTC+00:00)

Oscar 19 - Visible Passes

Search period start: 04 April 2026 00:00
Search period end: 14 April 2026 00:00
Orbit: 769 x 787 km, 98.9° (Epoch: 29 March)

Date Brightness Start Highest point End Pass type
(mag) Time Alt. Az. Time Alt. Az. Time Alt. Az.
4 Apr 12.5 18:55:39 10° SSW 19:00:15 34° W 19:04:53 10° NNW visible
6 Apr 13.5 19:30:31 10° SW 19:33:39 16° W 19:36:49 10° NW visible
7 Apr 12.5 18:55:47 10° SSW 19:00:24 35° W 19:05:02 10° NNW visible
9 Apr 13.5 19:30:38 10° SW 19:33:48 16° W 19:36:59 10° NW visible
10 Apr 12.5 18:55:55 10° SSW 19:00:32 35° W 19:05:11 10° NNW visible
12 Apr 13.4 19:30:45 10° SW 19:33:56 17° W 19:37:09 10° NW visible
13 Apr 12.4 18:56:02 10° SSW 19:00:40 35° W 19:05:20 10° NNW visible
